BTR2128 EGSS-EFTP

Flight info

Callsign BTR2128
Flight time 2h 17m
Altitude 35000
Route CLN P44 SOMVA DCT MAVAS DCT LUTIR DCT RIKUM DCT EVLIT
Aircraft B738/M-SDE2E3FGHIRWXY/LB1

Departure

Time 2026-04-11 09:28
Airport London Stansted Airport (EGSS)

Arrival

Time 2026-04-11 11:45
Airport Tampere-Pirkkala Airport (EFTP)
Time Latitude Longitude Altitude Speed Heading
2026-04-11 08:47 51.89315 0.25822 350 ft 0 kts 42°
2026-04-11 09:21 51.89307 0.25811 350 ft 2 kts 42°
2026-04-11 09:21 51.89295 0.25793 357 ft 2 kts 42°
2026-04-11 09:21 51.89283 0.25776 352 ft 2 kts 31°
2026-04-11 09:22 51.89268 0.25768 352 ft 2 kts 327°
2026-04-11 09:22 51.89261 0.25776 343 ft 1 kts 308°
2026-04-11 09:22 51.89261 0.25777 343 ft 0 kts 308°
2026-04-11 09:24 51.89262 0.25775 343 ft 1 kts 308°
2026-04-11 09:25 51.89275 0.25747 345 ft 5 kts 308°
2026-04-11 09:25 51.89303 0.25688 346 ft 8 kts 307°
2026-04-11 09:25 51.89345 0.25609 343 ft 10 kts 313°
2026-04-11 09:25 51.89391 0.25527 343 ft 10 kts 313°
2026-04-11 09:26 51.89418 0.25440 346 ft 6 kts 265°
2026-04-11 09:26 51.89410 0.25391 346 ft 4 kts 270°
2026-04-11 09:26 51.89423 0.25344 347 ft 4 kts 301°
2026-04-11 09:26 51.89442 0.25304 351 ft 5 kts 310°
2026-04-11 09:27 51.89474 0.25244 343 ft 10 kts 311°
2026-04-11 09:27 51.89495 0.25112 338 ft 15 kts 270°
2026-04-11 09:27 51.89453 0.24908 333 ft 26 kts 224°
2026-04-11 09:27 51.89128 0.24425 335 ft 105 kts 221°
2026-04-11 09:28 51.88401 0.23365 418 ft 168 kts 220°
2026-04-11 09:28 51.87428 0.22310 1329 ft 180 kts 202°
2026-04-11 09:28 51.86292 0.21613 2596 ft 173 kts 208°
2026-04-11 09:28 51.85144 0.20712 3363 ft 180 kts 213°
2026-04-11 09:29 51.84137 0.19739 4352 ft 160 kts 216°
2026-04-11 09:29 51.83198 0.18714 4844 ft 173 kts 214°
2026-04-11 09:29 51.81922 0.18115 4512 ft 211 kts 186°
2026-04-11 09:29 51.80463 0.18610 4242 ft 219 kts 159°
2026-04-11 09:30 51.79346 0.20230 4521 ft 222 kts 128°
2026-04-11 09:30 51.78748 0.22535 5029 ft 227 kts 105°
2026-04-11 09:30 51.78772 0.25041 5765 ft 222 kts 84°
2026-04-11 09:30 51.79264 0.27429 6274 ft 228 kts 72°
2026-04-11 09:31 51.79827 0.29836 6607 ft 229 kts 86°
2026-04-11 09:31 51.80048 0.32376 6971 ft 230 kts 91°
2026-04-11 09:31 51.80309 0.34953 7380 ft 236 kts 84°
2026-04-11 09:31 51.80712 0.37543 7777 ft 241 kts 86°
2026-04-11 09:32 51.80996 0.40282 7992 ft 252 kts 90°
2026-04-11 09:32 51.81426 0.43107 8384 ft 263 kts 82°
2026-04-11 09:32 51.81892 0.45963 8834 ft 262 kts 86°
2026-04-11 09:32 51.82206 0.48858 9288 ft 261 kts 92°
2026-04-11 09:33 51.82408 0.51774 9717 ft 263 kts 92°
2026-04-11 09:33 51.82860 0.54707 10083 ft 275 kts 79°
2026-04-11 09:33 51.83537 0.57591 10461 ft 280 kts 76°
2026-04-11 09:33 51.84285 0.60559 10672 ft 292 kts 75°
2026-04-11 09:34 51.85071 0.63691 10770 ft 309 kts 75°
2026-04-11 09:34 51.85891 0.66998 10860 ft 325 kts 75°
2026-04-11 09:34 51.86742 0.70469 11171 ft 336 kts 75°
2026-04-11 09:34 51.87601 0.74003 11798 ft 339 kts 75°
2026-04-11 09:35 51.88462 0.77570 12444 ft 342 kts 75°
2026-04-11 09:35 51.89329 0.81197 13045 ft 349 kts 75°
2026-04-11 09:35 51.90214 0.84937 13349 ft 366 kts 75°
2026-04-11 09:35 51.91143 0.88901 13517 ft 386 kts 75°
2026-04-11 09:36 51.92118 0.93072 13653 ft 406 kts 75°
2026-04-11 09:36 51.93136 0.97423 13964 ft 418 kts 74°
2026-04-11 09:36 51.94175 1.01855 14563 ft 422 kts 74°
2026-04-11 09:36 51.95218 1.06294 15304 ft 421 kts 74°
2026-04-11 09:37 51.96260 1.10747 15993 ft 423 kts 74°
2026-04-11 09:37 51.97302 1.15221 16631 ft 427 kts 74°
2026-04-11 09:37 51.98351 1.19745 17273 ft 429 kts 74°
2026-04-11 09:37 51.99403 1.24292 17911 ft 432 kts 74°
2026-04-11 09:38 52.00459 1.28870 18475 ft 435 kts 74°
2026-04-11 09:38 52.01522 1.33490 18984 ft 438 kts 74°
2026-04-11 09:38 52.02591 1.38147 19493 ft 442 kts 74°
2026-04-11 09:38 52.03665 1.42837 20003 ft 445 kts 74°
2026-04-11 09:39 52.04747 1.47570 20522 ft 448 kts 74°
2026-04-11 09:39 52.05832 1.52328 21025 ft 451 kts 74°
2026-04-11 09:39 52.06925 1.57128 21529 ft 454 kts 74°
2026-04-11 09:39 52.08022 1.61958 22019 ft 457 kts 74°
2026-04-11 09:40 52.09125 1.66826 22495 ft 460 kts 74°
2026-04-11 09:40 52.10233 1.71728 22956 ft 463 kts 74°
2026-04-11 09:40 52.11346 1.76662 23377 ft 467 kts 74°
2026-04-11 09:40 52.12466 1.81639 23730 ft 470 kts 74°
2026-04-11 09:41 52.13592 1.86658 24054 ft 474 kts 74°
2026-04-11 09:41 52.14724 1.91715 24382 ft 478 kts 74°
2026-04-11 09:41 52.15865 1.96826 24705 ft 481 kts 75°
2026-04-11 09:41 52.17010 2.01964 25036 ft 485 kts 74°
2026-04-11 09:42 52.18163 2.07151 25348 ft 488 kts 75°
2026-04-11 09:42 52.19321 2.12373 25658 ft 492 kts 75°
2026-04-11 09:42 52.20486 2.17639 25965 ft 495 kts 75°
2026-04-11 09:43 52.22831 2.28285 26564 ft 502 kts 75°
2026-04-11 09:43 52.24011 2.33658 26863 ft 505 kts 75°
2026-04-11 09:43 52.25197 2.39076 27151 ft 508 kts 75°
2026-04-11 09:43 52.26385 2.44518 27439 ft 511 kts 75°
2026-04-11 09:44 52.27581 2.50008 27722 ft 514 kts 75°
2026-04-11 09:44 52.28779 2.55520 27985 ft 517 kts 75°
2026-04-11 09:44 52.29967 2.61005 28255 ft 520 kts 75°
2026-04-11 09:44 52.31147 2.66602 28499 ft 522 kts 76°
2026-04-11 09:45 52.32209 2.72280 28765 ft 523 kts 78°
2026-04-11 09:45 52.33205 2.78024 29004 ft 526 kts 79°
2026-04-11 09:45 52.34180 2.83782 29316 ft 527 kts 79°
2026-04-11 09:45 52.35165 2.89550 29697 ft 527 kts 79°
2026-04-11 09:46 52.36165 2.95312 30014 ft 527 kts 78°
2026-04-11 09:46 52.37177 3.01078 30323 ft 526 kts 78°
2026-04-11 09:46 52.37845 3.04885 30536 ft 526 kts 78°
2026-04-11 09:46 52.38945 3.10680 30859 ft 528 kts 72°
2026-04-11 09:47 52.40460 3.16086 31145 ft 531 kts 63°
2026-04-11 09:47 52.42444 3.21299 31459 ft 533 kts 54°
2026-04-11 09:47 52.44787 3.25882 31756 ft 532 kts 47°
2026-04-11 09:47 52.47305 3.30338 32055 ft 532 kts 46°
2026-04-11 09:48 52.49850 3.34752 32322 ft 532 kts 46°
2026-04-11 09:48 52.52393 3.39163 32615 ft 532 kts 46°
2026-04-11 09:48 52.54928 3.43597 32907 ft 532 kts 46°
2026-04-11 09:48 52.57443 3.48048 33193 ft 532 kts 46°
2026-04-11 09:49 52.59947 3.52521 33462 ft 532 kts 46°
2026-04-11 09:49 52.62446 3.57015 33729 ft 532 kts 47°
2026-04-11 09:49 52.64932 3.61509 34034 ft 530 kts 47°
2026-04-11 09:49 52.67405 3.65991 34386 ft 526 kts 47°
2026-04-11 09:50 52.69856 3.70440 34707 ft 524 kts 46°
2026-04-11 09:50 52.74779 3.79388 34807 ft 529 kts 46°
2026-04-11 09:51 52.79709 3.88375 34789 ft 526 kts 46°
2026-04-11 09:51 52.84582 3.97292 34803 ft 521 kts 46°
2026-04-11 09:52 52.89430 4.06192 34826 ft 521 kts 46°
2026-04-11 09:52 52.94274 4.15118 34819 ft 521 kts 46°
2026-04-11 09:53 52.99113 4.24065 34827 ft 521 kts 46°
2026-04-11 09:53 53.03944 4.33032 34827 ft 522 kts 46°
2026-04-11 09:54 53.08781 4.42043 34835 ft 523 kts 46°
2026-04-11 09:54 53.13588 4.51031 34835 ft 524 kts 46°
2026-04-11 09:55 53.18466 4.60186 34836 ft 525 kts 46°
2026-04-11 09:55 53.23277 4.69249 34839 ft 526 kts 46°
2026-04-11 09:56 53.28120 4.78405 34845 ft 526 kts 46°
2026-04-11 09:56 53.32965 4.87598 34846 ft 527 kts 46°
2026-04-11 09:57 53.37796 4.96801 34846 ft 526 kts 46°
2026-04-11 09:57 53.42621 5.06026 34847 ft 526 kts 46°
2026-04-11 09:58 53.47432 5.15258 34849 ft 525 kts 45°
2026-04-11 09:58 53.52226 5.24494 34858 ft 524 kts 45°
2026-04-11 09:59 53.57002 5.33728 34857 ft 523 kts 45°
2026-04-11 09:59 53.61763 5.42966 34855 ft 522 kts 45°
2026-04-11 10:00 53.66505 5.52203 34863 ft 520 kts 45°
2026-04-11 10:00 53.71226 5.61438 34872 ft 519 kts 45°
2026-04-11 10:01 53.75941 5.70689 34885 ft 520 kts 45°
2026-04-11 10:01 53.80652 5.79968 34873 ft 520 kts 45°
2026-04-11 10:02 53.85317 5.89194 34883 ft 519 kts 45°
2026-04-11 10:02 53.90008 5.98504 34877 ft 519 kts 45°
2026-04-11 10:03 53.94676 6.07807 34887 ft 517 kts 45°
2026-04-11 10:03 53.99330 6.17114 34895 ft 516 kts 45°
2026-04-11 10:04 54.03961 6.26411 34901 ft 514 kts 45°
2026-04-11 10:04 54.08568 6.35696 34903 ft 513 kts 45°
2026-04-11 10:05 54.13154 6.44972 34912 ft 511 kts 45°
2026-04-11 10:05 54.17722 6.54246 34922 ft 510 kts 45°
2026-04-11 10:06 54.22269 6.63514 34925 ft 508 kts 45°
2026-04-11 10:06 54.26798 6.72778 34938 ft 507 kts 45°
2026-04-11 10:07 54.31314 6.82052 34950 ft 506 kts 45°
2026-04-11 10:07 54.35816 6.91330 34956 ft 506 kts 45°
2026-04-11 10:08 54.40302 7.00611 34964 ft 505 kts 45°
2026-04-11 10:08 54.44763 7.09875 34969 ft 505 kts 45°
2026-04-11 10:09 54.49229 7.19186 34979 ft 505 kts 45°
2026-04-11 10:09 54.53689 7.28518 34983 ft 505 kts 45°
2026-04-11 10:10 54.58145 7.37878 34992 ft 505 kts 45°
2026-04-11 10:10 54.62593 7.47257 34996 ft 505 kts 45°
2026-04-11 10:11 54.67028 7.56645 35002 ft 504 kts 45°
2026-04-11 10:11 54.71453 7.66048 35006 ft 504 kts 45°
2026-04-11 10:12 54.75868 7.75464 35013 ft 504 kts 45°
2026-04-11 10:12 54.80268 7.84887 35024 ft 503 kts 45°
2026-04-11 10:13 54.84659 7.94324 35037 ft 502 kts 45°
2026-04-11 10:13 54.89033 8.03762 35037 ft 501 kts 45°
2026-04-11 10:14 54.93391 8.13200 35056 ft 500 kts 46°
2026-04-11 10:14 54.97733 8.22642 35054 ft 499 kts 46°
2026-04-11 10:15 55.02061 8.32089 35051 ft 498 kts 46°
2026-04-11 10:15 55.06350 8.41460 35048 ft 496 kts 44°
2026-04-11 10:16 55.11001 8.50234 35061 ft 491 kts 39°
2026-04-11 10:16 55.15800 8.58690 35050 ft 490 kts 39°
2026-04-11 10:17 55.20589 8.67177 35056 ft 489 kts 39°
2026-04-11 10:17 55.25332 8.75722 35068 ft 489 kts 40°
2026-04-11 10:18 55.30056 8.84317 35088 ft 489 kts 40°
2026-04-11 10:18 55.34768 8.92933 35086 ft 489 kts 40°
2026-04-11 10:19 55.39471 9.01560 35098 ft 488 kts 40°
2026-04-11 10:19 55.44166 9.10202 35104 ft 488 kts 40°
2026-04-11 10:20 55.48849 9.18851 35117 ft 487 kts 40°
2026-04-11 10:20 55.53521 9.27511 35108 ft 487 kts 40°
2026-04-11 10:21 55.58175 9.36169 35109 ft 486 kts 40°
2026-04-11 10:21 55.62821 9.44845 35099 ft 485 kts 40°
2026-04-11 10:22 55.67448 9.53516 35121 ft 484 kts 41°
2026-04-11 10:22 55.69758 9.57857 35305 ft 484 kts 41°
2026-04-11 10:22 55.72052 9.62180 35690 ft 479 kts 41°
2026-04-11 10:22 55.74296 9.66417 36090 ft 474 kts 41°
2026-04-11 10:23 55.76574 9.70726 36411 ft 472 kts 42°
2026-04-11 10:23 55.78791 9.74922 36584 ft 473 kts 42°
2026-04-11 10:23 55.81072 9.79244 36720 ft 474 kts 42°
2026-04-11 10:23 55.83300 9.83472 36869 ft 475 kts 42°
2026-04-11 10:24 55.85557 9.87765 37075 ft 474 kts 43°
2026-04-11 10:24 55.90064 9.96367 37119 ft 475 kts 43°
2026-04-11 10:25 55.94544 10.04953 37127 ft 471 kts 43°
2026-04-11 10:25 55.98995 10.13513 37122 ft 469 kts 43°
2026-04-11 10:26 56.03407 10.22027 37141 ft 466 kts 44°
2026-04-11 10:26 56.07801 10.30535 37145 ft 465 kts 44°
2026-04-11 10:27 56.12177 10.39039 37160 ft 464 kts 44°
2026-04-11 10:27 56.16552 10.47571 37159 ft 465 kts 44°
2026-04-11 10:28 56.20928 10.56137 37167 ft 466 kts 44°
2026-04-11 10:28 56.25313 10.64752 37166 ft 468 kts 44°
2026-04-11 10:29 56.29710 10.73421 37173 ft 470 kts 44°
2026-04-11 10:29 56.34115 10.82140 37161 ft 472 kts 44°
2026-04-11 10:30 56.38532 10.90918 37167 ft 473 kts 45°
2026-04-11 10:30 56.42966 10.99761 37161 ft 474 kts 45°
2026-04-11 10:31 56.47371 11.08579 37161 ft 474 kts 45°
2026-04-11 10:31 56.51784 11.17446 37167 ft 474 kts 45°
2026-04-11 10:32 56.56186 11.26324 37179 ft 473 kts 45°
2026-04-11 10:32 56.60567 11.35192 37173 ft 472 kts 45°
2026-04-11 10:33 56.64937 11.44074 37185 ft 470 kts 45°
2026-04-11 10:33 56.69256 11.52882 37177 ft 469 kts 46°
2026-04-11 10:34 56.73592 11.61758 37185 ft 469 kts 46°
2026-04-11 10:34 56.77917 11.70647 37182 ft 468 kts 46°
2026-04-11 10:35 56.82216 11.79529 37020 ft 466 kts 43°
2026-04-11 10:35 56.86482 11.88366 37167 ft 463 kts 43°
2026-04-11 10:36 56.90050 11.95772 37190 ft 464 kts 43°
2026-04-11 10:36 56.95007 12.06097 37200 ft 466 kts 43°
2026-04-11 10:37 56.98564 12.13540 37202 ft 467 kts 43°
2026-04-11 10:37 57.02846 12.22533 37200 ft 469 kts 43°
2026-04-11 10:38 57.07132 12.31572 37202 ft 470 kts 43°
2026-04-11 10:38 57.13552 12.45180 37195 ft 469 kts 43°
2026-04-11 10:39 57.18357 12.55414 37195 ft 466 kts 44°
2026-04-11 10:39 57.22577 12.64439 37196 ft 463 kts 44°
2026-04-11 10:40 57.26762 12.73423 37198 ft 460 kts 44°
2026-04-11 10:40 57.30922 12.82385 37197 ft 457 kts 44°
2026-04-11 10:41 57.35045 12.91301 37199 ft 455 kts 44°
2026-04-11 10:41 57.39152 13.00215 37216 ft 454 kts 44°
2026-04-11 10:42 57.43247 13.09135 37209 ft 454 kts 44°
2026-04-11 10:42 57.47335 13.18075 37216 ft 455 kts 45°
2026-04-11 10:43 57.53485 13.31587 37208 ft 457 kts 45°
2026-04-11 10:44 57.57592 13.40657 37214 ft 459 kts 45°
2026-04-11 10:44 57.61702 13.49768 37212 ft 460 kts 46°
2026-04-11 10:45 57.65790 13.58865 37215 ft 461 kts 46°
2026-04-11 10:45 57.69902 13.68054 37214 ft 461 kts 46°
2026-04-11 10:46 57.74010 13.77266 37214 ft 461 kts 46°
2026-04-11 10:46 57.78109 13.86496 37209 ft 460 kts 46°
2026-04-11 10:47 57.81532 13.94232 37213 ft 459 kts 46°
2026-04-11 10:47 57.85601 14.03459 37214 ft 458 kts 47°
2026-04-11 10:48 57.89649 14.12674 37212 ft 457 kts 47°
2026-04-11 10:48 57.93651 14.21821 37219 ft 455 kts 47°
2026-04-11 10:49 57.97666 14.31030 37221 ft 454 kts 47°
2026-04-11 10:49 58.01659 14.40226 37227 ft 453 kts 47°
2026-04-11 10:50 58.05638 14.49427 37239 ft 452 kts 47°
2026-04-11 10:50 58.09612 14.58650 37231 ft 453 kts 48°
2026-04-11 10:51 58.13569 14.67871 37235 ft 453 kts 48°
2026-04-11 10:51 58.17539 14.77158 37235 ft 453 kts 48°
2026-04-11 10:52 58.21492 14.86443 37243 ft 453 kts 48°
2026-04-11 10:52 58.25444 14.95761 37242 ft 453 kts 49°
2026-04-11 10:53 58.29393 15.05109 37251 ft 454 kts 49°
2026-04-11 10:53 58.33336 15.14482 37257 ft 454 kts 49°
2026-04-11 10:54 58.37278 15.23885 37260 ft 454 kts 49°
2026-04-11 10:54 58.41214 15.33315 37270 ft 455 kts 49°
2026-04-11 10:55 58.45146 15.42774 37265 ft 455 kts 49°
2026-04-11 10:55 58.49050 15.52201 37269 ft 455 kts 50°
2026-04-11 10:56 58.52968 15.61700 37256 ft 455 kts 50°
2026-04-11 10:56 58.56880 15.71223 37268 ft 455 kts 50°
2026-04-11 10:57 58.60781 15.80757 37253 ft 455 kts 50°
2026-04-11 10:57 58.64674 15.90312 37262 ft 454 kts 50°
2026-04-11 10:58 58.68552 15.99868 37273 ft 453 kts 50°
2026-04-11 10:58 58.72425 16.09450 37257 ft 453 kts 51°
2026-04-11 10:59 58.76279 16.19025 37259 ft 452 kts 51°
2026-04-11 10:59 58.80126 16.28619 37260 ft 452 kts 51°
2026-04-11 11:00 58.83957 16.38213 37249 ft 451 kts 51°
2026-04-11 11:00 58.87782 16.47834 37265 ft 451 kts 51°
2026-04-11 11:01 58.91596 16.57462 37260 ft 451 kts 51°
2026-04-11 11:01 58.95401 16.67109 37268 ft 451 kts 51°
2026-04-11 11:02 58.99198 16.76775 37257 ft 451 kts 51°
2026-04-11 11:02 59.02964 16.86402 37258 ft 451 kts 51°
2026-04-11 11:03 59.06749 16.96116 37260 ft 451 kts 51°
2026-04-11 11:03 59.10529 17.05858 37257 ft 451 kts 52°
2026-04-11 11:04 59.14302 17.15622 37260 ft 452 kts 52°
2026-04-11 11:04 59.18073 17.25420 37258 ft 452 kts 52°
2026-04-11 11:05 59.21836 17.35241 37257 ft 452 kts 52°
2026-04-11 11:05 59.25593 17.45088 37259 ft 452 kts 52°
2026-04-11 11:06 59.29344 17.54960 37261 ft 452 kts 52°
2026-04-11 11:06 59.33085 17.64845 37272 ft 452 kts 52°
2026-04-11 11:07 59.36818 17.74749 37270 ft 452 kts 53°
2026-04-11 11:07 59.40544 17.84679 37269 ft 451 kts 53°
2026-04-11 11:08 59.44252 17.94602 37262 ft 450 kts 53°
2026-04-11 11:08 59.47953 18.04549 37261 ft 450 kts 53°
2026-04-11 11:09 59.51635 18.14486 37265 ft 449 kts 53°
2026-04-11 11:09 59.55306 18.24438 37273 ft 448 kts 53°
2026-04-11 11:10 59.58962 18.34387 37268 ft 448 kts 54°
2026-04-11 11:10 59.62610 18.44358 37270 ft 447 kts 54°
2026-04-11 11:11 59.66243 18.54332 37284 ft 447 kts 54°
2026-04-11 11:11 59.69865 18.64318 37290 ft 446 kts 54°
2026-04-11 11:12 59.73476 18.74314 37294 ft 446 kts 54°
2026-04-11 11:12 59.77052 18.84256 37296 ft 446 kts 55°
2026-04-11 11:13 59.80653 18.94312 37306 ft 446 kts 55°
2026-04-11 11:13 59.84248 19.04393 37305 ft 447 kts 55°
2026-04-11 11:14 59.87833 19.14492 37304 ft 447 kts 55°
2026-04-11 11:14 59.91416 19.24628 37304 ft 447 kts 56°
2026-04-11 11:15 59.94993 19.34787 37308 ft 448 kts 56°
2026-04-11 11:15 59.98571 19.44966 37303 ft 448 kts 56°
2026-04-11 11:16 60.02174 19.55115 37300 ft 448 kts 55°
2026-04-11 11:16 60.05782 19.65291 37297 ft 448 kts 56°
2026-04-11 11:17 60.09376 19.75485 37292 ft 448 kts 56°
2026-04-11 11:17 60.12935 19.85638 37288 ft 448 kts 56°
2026-04-11 11:17 60.14757 19.90852 36904 ft 454 kts 56°
2026-04-11 11:18 60.16562 19.96034 36408 ft 452 kts 56°
2026-04-11 11:18 60.18361 20.01206 35778 ft 452 kts 57°
2026-04-11 11:18 60.20162 20.06396 35142 ft 452 kts 57°
2026-04-11 11:18 60.21955 20.11574 34492 ft 452 kts 57°
2026-04-11 11:19 60.23746 20.16758 33916 ft 449 kts 57°
2026-04-11 11:19 60.25517 20.21894 33385 ft 445 kts 57°
2026-04-11 11:19 60.27272 20.26995 32887 ft 440 kts 57°
2026-04-11 11:19 60.29006 20.32045 32427 ft 435 kts 57°
2026-04-11 11:20 60.30693 20.36971 31950 ft 431 kts 58°
2026-04-11 11:20 60.32407 20.41985 31494 ft 426 kts 58°
2026-04-11 11:20 60.34056 20.46820 31047 ft 422 kts 58°
2026-04-11 11:20 60.35711 20.51684 30598 ft 418 kts 58°
2026-04-11 11:21 60.37370 20.56571 30093 ft 414 kts 58°
2026-04-11 11:21 60.38968 20.61287 29598 ft 410 kts 58°
2026-04-11 11:21 60.40588 20.66076 29129 ft 404 kts 58°
2026-04-11 11:21 60.42166 20.70750 28664 ft 400 kts 59°
2026-04-11 11:22 60.43704 20.75316 28206 ft 395 kts 59°
2026-04-11 11:22 60.45265 20.79959 27733 ft 391 kts 59°
2026-04-11 11:22 60.46787 20.84498 27288 ft 387 kts 59°
2026-04-11 11:22 60.48270 20.88927 26837 ft 384 kts 59°
2026-04-11 11:23 60.49763 20.93394 26394 ft 381 kts 59°
2026-04-11 11:23 60.51239 20.97821 25958 ft 378 kts 59°
2026-04-11 11:23 60.52705 21.02224 25524 ft 375 kts 59°
2026-04-11 11:23 60.54157 21.06594 25089 ft 372 kts 59°
2026-04-11 11:24 60.55600 21.10944 24663 ft 369 kts 59°
2026-04-11 11:24 60.57030 21.15265 24226 ft 367 kts 59°
2026-04-11 11:24 60.58451 21.19564 23792 ft 365 kts 59°
2026-04-11 11:24 60.59860 21.23839 23303 ft 363 kts 59°
2026-04-11 11:25 60.61260 21.28091 22844 ft 360 kts 59°
2026-04-11 11:25 60.62646 21.32305 22403 ft 357 kts 59°
2026-04-11 11:25 60.64019 21.36491 21990 ft 353 kts 59°
2026-04-11 11:25 60.65377 21.40640 21550 ft 351 kts 59°
2026-04-11 11:26 60.66725 21.44762 21152 ft 348 kts 59°
2026-04-11 11:26 60.68058 21.48846 20740 ft 346 kts 59°
2026-04-11 11:26 60.69386 21.52925 20338 ft 343 kts 59°
2026-04-11 11:26 60.70702 21.56972 19939 ft 341 kts 59°
2026-04-11 11:27 60.72010 21.61006 19548 ft 340 kts 59°
2026-04-11 11:27 60.73310 21.65019 19145 ft 338 kts 59°
2026-04-11 11:27 60.74603 21.69014 18745 ft 337 kts 59°
2026-04-11 11:27 60.75892 21.73008 18321 ft 335 kts 59°
2026-04-11 11:28 60.77174 21.76985 17884 ft 334 kts 59°
2026-04-11 11:28 60.78447 21.80939 17467 ft 332 kts 59°
2026-04-11 11:28 60.79709 21.84868 17078 ft 329 kts 59°
2026-04-11 11:28 60.80965 21.88783 16700 ft 327 kts 59°
2026-04-11 11:29 60.83446 21.96539 15915 ft 323 kts 59°
2026-04-11 11:29 60.84674 22.00385 15537 ft 322 kts 59°
2026-04-11 11:29 60.85892 22.04210 15165 ft 320 kts 59°
2026-04-11 11:30 60.87104 22.08022 14797 ft 318 kts 59°
2026-04-11 11:30 60.88311 22.11823 14415 ft 317 kts 59°
2026-04-11 11:30 60.89513 22.15616 14045 ft 316 kts 59°
2026-04-11 11:30 60.90711 22.19401 13621 ft 315 kts 59°
2026-04-11 11:31 60.91903 22.23173 13229 ft 314 kts 59°
2026-04-11 11:31 60.93087 22.26927 12850 ft 312 kts 59°
2026-04-11 11:31 60.94263 22.30660 12477 ft 310 kts 59°
2026-04-11 11:31 60.95432 22.34378 12102 ft 308 kts 59°
2026-04-11 11:32 60.96592 22.38072 11741 ft 306 kts 59°
2026-04-11 11:32 60.97744 22.41749 11386 ft 305 kts 59°
2026-04-11 11:32 60.98891 22.45413 11022 ft 304 kts 59°
2026-04-11 11:32 60.99647 22.47833 10827 ft 302 kts 59°
2026-04-11 11:33 61.01121 22.52552 10653 ft 290 kts 59°
2026-04-11 11:33 61.02195 22.55999 10528 ft 282 kts 59°
2026-04-11 11:33 61.03254 22.59403 10174 ft 283 kts 59°
2026-04-11 11:33 61.04302 22.62782 9933 ft 279 kts 59°
2026-04-11 11:34 61.05325 22.66079 9731 ft 270 kts 59°
2026-04-11 11:34 61.06008 22.68283 9448 ft 267 kts 59°
2026-04-11 11:34 61.06993 22.71464 9158 ft 259 kts 59°
2026-04-11 11:34 61.07939 22.74525 8874 ft 253 kts 59°
2026-04-11 11:35 61.08871 22.77545 8620 ft 246 kts 60°
2026-04-11 11:35 61.09780 22.80498 8351 ft 242 kts 60°
2026-04-11 11:35 61.10684 22.83436 8104 ft 242 kts 60°
2026-04-11 11:35 61.11594 22.86401 7872 ft 248 kts 60°
2026-04-11 11:36 61.12535 22.89473 7599 ft 255 kts 60°
2026-04-11 11:36 61.13487 22.92577 7331 ft 255 kts 60°
2026-04-11 11:36 61.14424 22.95634 7056 ft 249 kts 60°
2026-04-11 11:36 61.15341 22.98634 6774 ft 243 kts 60°
2026-04-11 11:37 61.16234 23.01553 6510 ft 237 kts 60°
2026-04-11 11:37 61.17102 23.04403 6277 ft 232 kts 60°
2026-04-11 11:37 61.17965 23.07238 6053 ft 234 kts 60°
2026-04-11 11:37 61.18847 23.10139 5803 ft 243 kts 60°
2026-04-11 11:38 61.19766 23.13169 5531 ft 252 kts 60°
2026-04-11 11:38 61.20693 23.16221 5250 ft 248 kts 60°
2026-04-11 11:38 61.21611 23.19240 4973 ft 245 kts 60°
2026-04-11 11:38 61.22509 23.22208 4718 ft 240 kts 60°
2026-04-11 11:39 61.23394 23.25131 4459 ft 238 kts 60°
2026-04-11 11:39 61.24256 23.28005 4213 ft 230 kts 60°
2026-04-11 11:39 61.25115 23.30725 4002 ft 221 kts 50°
2026-04-11 11:39 61.26374 23.32443 3903 ft 218 kts 17°
2026-04-11 11:40 61.27839 23.32593 3873 ft 209 kts 352°
2026-04-11 11:40 61.29182 23.31531 3740 ft 205 kts 335°
2026-04-11 11:40 61.30460 23.30216 3676 ft 205 kts 336°
2026-04-11 11:40 61.31742 23.28925 3599 ft 203 kts 338°
2026-04-11 11:41 61.33073 23.28475 3402 ft 188 kts 16°
2026-04-11 11:41 61.34136 23.29725 3256 ft 169 kts 48°
2026-04-11 11:41 61.34784 23.31705 3071 ft 166 kts 68°
2026-04-11 11:41 61.35275 23.33893 2852 ft 168 kts 66°
2026-04-11 11:42 61.35772 23.36070 2692 ft 167 kts 66°
2026-04-11 11:42 61.36285 23.38236 2435 ft 165 kts 66°
2026-04-11 11:42 61.36779 23.40349 2208 ft 160 kts 66°
2026-04-11 11:42 61.37252 23.42373 2040 ft 153 kts 67°
2026-04-11 11:43 61.37720 23.44380 1927 ft 155 kts 65°
2026-04-11 11:43 61.38175 23.46326 1753 ft 139 kts 67°
2026-04-11 11:43 61.38589 23.48074 1518 ft 134 kts 66°
2026-04-11 11:43 61.38993 23.49829 1287 ft 134 kts 68°
2026-04-11 11:44 61.39396 23.51597 1102 ft 137 kts 66°
2026-04-11 11:44 61.39810 23.53408 912 ft 139 kts 67°
2026-04-11 11:44 61.40233 23.55260 734 ft 142 kts 66°
2026-04-11 11:44 61.40654 23.57094 564 ft 141 kts 66°
2026-04-11 11:45 61.41067 23.58898 407 ft 129 kts 66°
2026-04-11 11:45 61.41393 23.60325 390 ft 80 kts 63°
2026-04-11 11:45 61.41544 23.60976 384 ft 29 kts 64°
2026-04-11 11:45 61.41628 23.61339 385 ft 27 kts 64°
2026-04-11 11:46 61.41698 23.61648 383 ft 20 kts 64°
2026-04-11 11:46 61.41751 23.61879 380 ft 10 kts 64°
2026-04-11 11:46 61.41783 23.62010 378 ft 10 kts 59°
2026-04-11 11:46 61.41843 23.62061 378 ft 10 kts 348°
2026-04-11 11:47 61.41906 23.62004 379 ft 10 kts 332°
2026-04-11 11:47 61.41963 23.61945 379 ft 6 kts 333°
2026-04-11 11:47 61.41997 23.61935 379 ft 5 kts
2026-04-11 11:47 61.42024 23.61949 379 ft 2 kts 15°
2026-04-11 11:48 61.42038 23.61957 379 ft 2 kts 15°